STARLINK-11531, 62841

Orbit data source: Space-Track

STARLINK-11531, 62841 is a payload satellite owned by SpaceX/Seattle (US) in LEO that was launched on Mon, 27 Jan 2025 UTC via an FALCON 9 launch vehicle from the Air Force Eastern Test Range (AFETR). Payload-class satellites include a variety of spacecraft equipped with specific instruments for various scientific and technological missions. These include communications satellites like Starlink; space stations such as the ISS; scientific satellites like the Hubble; Earth observation satellites from companies like Planet Labs, Umbra, and HawkEye 360; GPS; miniature CubeSats for education and research; and military/defense satellites.

Loading next visibility...
Identifier
62841, 2025-019N
Orbit
LEO
Country
Flag of USUS
Related business
Manufacturer
SpaceX/Seattle
Mission
Operational Commercial Communications
Bus & Motor
STARLINK V2MD, Unknown motor
Mass
960 kg wet, ~910 kg dry
Launch date (UTC)
2025-01-27 (9 months ago)
Launch vehicle
FALCON 9
Launch site
Air Force Eastern Test Range (AFETR)
Object type
Payload
Rocket body
Debris
Shape & HBR
Box + 2 Pan, 18.1 m
Radar Cross Section
36.964 m², Large (>1 m²)

Expand to show TLE details & history
Last TLE update: 2 days ago

TLE from 2 days ago
0 STARLINK-11531
1 62841U 25019N   25309.47776690  .00249825  00000-0  18801-2 0  9993
2 62841  42.9991 334.8484 0004078 257.6863 102.3548 15.70991569 44347
Epoch: 2025-11-05T11:27Z
TLE epoch observation values (Epoch: 2025-11-05T11:27:59.060Z)
Latitude
-0.00002°
Longitude
117.90243°
Altitude
356.421 km
Speed
7.697 km/s
True Right ascension
22h 19m 23s
True Declination
0° 00' 00"
Sunlit
Object was in full shadow at epoch
Visualization orbit readout
Latitude
Unknown
Longitude
Unknown
Altitude
Unknown
Speed
Unknown
Apparent Right ascension
Unknown
Apparent Declination
Unknown
Sunlit
N/A
Visualization observer readout
Local Sidereal Time
22:27:32
Azimuth
Unknown
Elevation
Unknown
Doppler factor
Unknown
Orbital elements
Apogee altitude
360.791 km
Perigee altitude
355.297 km
Semi-major axis
6,736.181 km
Eccentricity
0.00041
Inclination
42.9991°
RAAN
334.8484°
Arg. of periapsis
257.6863°
True anomaly
102.40044°
Mean anomaly
102.3548°
Eccentric anomaly
102.37762°
Mean motion
3.92575 °/min
Orbital period
91.7 mins
BSTAR
0.0018801
Loading maneuver chart data...
Computing Atmospheric mass density...
Loading historical data...
Loading historical data...
Loading historical data...
Loading historical data...
Loading historical data...
Loading historical data...
Loading historical data...

Documentation

Showing up to 5 results
|